EST,Max TemperatureF,Mean TemperatureF,Min TemperatureF,Max Dew PointF,MeanDew PointF,Min DewpointF,Max Humidity, Mean Humidity, Min Humidity, Max Sea Level PressureIn, Mean Sea Level PressureIn, Min Sea Level PressureIn, Max VisibilityMiles, Mean VisibilityMiles, Min VisibilityMiles, Max Wind SpeedMPH, Mean Wind SpeedMPH, Max Gust SpeedMPH,PrecipitationIn, CloudCover, Events, WindDirDegrees
2012-12-1,62,48,35,43,38,31,85,67,44,30.28,30.22,30.17,10,10,7,14,5,17,0.00,3,,172
2012-12-2,58,54,50,51,47,42,91,78,59,30.18,30.11,30.05,10,8,1,16,10,21,0.00,8,Rain,196
2012-12-3,64,58,52,57,52,50,91,84,76,30.18,30.13,30.09,10,8,2,12,6,,0.00,5,Rain,176
2012-12-4,63,50,38,56,48,35,89,77,68,30.18,30.09,29.99,10,10,5,26,11,36,0.00,6,Rain,198
2012-12-5,44,38,31,35,30,23,91,73,53,30.35,30.29,30.19,10,9,2,13,6,,0.00,1,,330
2012-12-6,47,36,26,38,31,21,85,65,50,30.24,30.09,29.99,10,10,10,9,4,,0.00,3,Rain,117
2012-12-7,50,46,41,48,43,39,92,89,84,30.01,29.94,29.84,10,5,0,7,2,,0.00,8,Fog-Rain,115
2012-12-8,52,48,43,49,45,39,90,86,79,30.05,29.91,29.83,10,6,1,14,7,17,0.00,8,Rain,251
2012-12-9,54,48,41,51,42,36,88,83,77,30.07,29.93,29.69,10,10,3,15,9,18,0.00,8,Rain-Thunderstorm,113
2012-12-10,53,44,34,49,38,29,89,83,74,29.90,29.72,29.64,10,9,2,16,10,22,0.00,8,Rain-Snow-Thunderstorm,277
2012-12-11,37,32,27,30,27,22,83,76,61,30.24,30.08,29.90,10,10,7,13,9,17,0.00,6,,253
2012-12-12,41,32,22,27,23,19,88,73,44,30.41,30.36,30.25,10,9,4,8,2,,0.00,0,,162
2012-12-13,45,34,22,27,23,19,87,72,40,30.43,30.36,30.26,10,10,4,6,2,,0.00,0,,163
2012-12-14,53,39,25,31,26,22,86,67,33,30.31,30.25,30.18,10,10,10,9,3,,0.00,0,,194
2012-12-15,52,42,33,38,32,27,81,65,45,30.18,30.01,29.81,10,10,10,14,4,,0.00,4,Rain,129
2012-12-16,61,54,47,51,47,37,89,72,57,29.81,29.73,29.67,10,10,10,18,10,24,0.00,6,Rain,192
2012-12-17,51,46,41,46,42,38,90,86,79,29.74,29.65,29.53,10,5,0,23,3,29,0.00,8,Fog-Rain-Thunderstorm,358
2012-12-18,44,40,36,38,34,32,89,77,60,29.83,29.75,29.57,10,9,4,16,9,18,0.00,7,Rain,254
2012-12-19,46,42,37,36,35,32,81,74,63,30.11,29.98,29.75,10,8,4,13,7,18,0.00,5,,217
2012-12-20,50,43,36,44,36,27,86,73,60,30.03,29.60,29.29,10,10,5,31,14,46,0.00,6,Rain,155
2012-12-21,36,34,31,28,26,25,83,77,66,29.92,29.61,29.45,10,6,1,32,25,47,0.00,8,Snow,258
2012-12-22,33,30,26,26,23,20,79,73,65,30.18,30.10,29.93,10,10,10,20,14,30,0.00,5,,251
2012-12-23,43,33,23,28,23,18,83,70,51,30.07,29.97,29.92,10,10,10,9,4,,0.00,0,,206
2012-12-24,34,30,26,32,27,22,92,85,76,29.98,29.86,29.76,10,6,0,13,6,,0.00,5,Fog,46
2012-12-25,36,34,32,30,28,25,87,76,66,30.19,30.12,29.98,10,9,5,17,8,22,0.00,8,,15
2012-12-26,35,32,29,30,28,25,89,82,67,30.06,29.72,29.53,10,7,0,25,17,33,0.00,8,Snow,29
2012-12-27,32,28,25,25,24,22,86,79,74,30.17,30.05,29.80,10,9,7,15,10,23,0.00,8,,276
2012-12-28,34,30,26,26,25,23,88,80,66,30.17,30.06,29.85,10,7,4,9,3,,0.00,6,,78
2012-12-29,32,30,28,27,26,23,90,83,77,30.10,29.85,29.70,10,3,1,20,7,29,0.00,8,Snow,311
2012-12-30,28,24,19,23,19,15,85,76,68,30.41,30.33,30.11,10,10,5,16,11,23,0.00,5,Snow,239
2012-12-31,34,28,21,30,24,17,88,79,67,30.32,30.16,30.05,10,9,1,15,9,17,0.00,5,Snow,203